Regional Weather Roundup
Issued by NWS

Home | Current Version | Previous Version | Text Only | Print | Product List | Glossary Off
Versions: 1 2 3 4 5 6 7 8 9 10 11 12 13 14 15 16 17 18 19 20 21 22 23 24 25 26 27 28 29 30 31 32 33 34 35 36 37 38 39 40 41 42 43 44 45 46 47 48 49 50

000
ASUS43 KLMK 311102
RWRKY
KENTUCKY REGIONAL WEATHER ROUNDUP
NATIONAL WEATHER SERVICE LOUISVILLE KY
700 AM EDT THU JUL 31 2014

NOTE "FAIR" INDICATES FEW OR NO CLOUDS BELOW 12,000 FEET
WITH NO SIGNIFICANT WEATHER AND/OR OBSTRUCTIONS TO VISIBILITY.

KYZ001>023-026-027-061>063-070>075-311200-
WESTERN AND SOUTH CENTRAL KENTUCKY

CITY           SKY/WX    TMP DP  RH WIND       PRES   REMARKS
PADUCAH        PTCLDY    59  56  89 CALM      30.08R FOG
HENDERSON      CLEAR     55  52  88 CALM      30.08S
OWENSBORO      PTCLDY    59  59 100 CALM      30.09S
HOPKINSVILLE   MOCLDY    59  59 100 MISG      30.09R
BOWLING GREEN  CLEAR     59  56  89 CALM      30.10S
GLASGOW        MOCLDY    57  57 100 CALM      30.11R FOG
$$

KYZ024-025-028>034-038-045-046-053-311200-
NORTH CENTRAL KENTUCKY

CITY           SKY/WX    TMP DP  RH WIND       PRES   REMARKS
LOUISVILLE/SDF PTCLDY    64  60  87 SE5       30.09R
LOUISVILLE/LOU CLEAR     62  59  90 CALM      30.10R
FORT KNOX      CLEAR     57  56  95 CALM      30.09S
$$

KYZ035>037-039>044-047>052-055>060-089>105-311200-
NORTHEAST KENTUCKY

CITY           SKY/WX    TMP DP  RH WIND       PRES   REMARKS
LEXINGTON      CLEAR     58  55  90 S3        30.12R FOG
COVINGTON      CLEAR     61  58  90 CALM      30.09R
FRANKFORT      CLEAR     58  56  93 CALM      30.09S FOG
$$

KYZ054-064>069-076>088-106>120-311200-
SOUTHEAST KENTUCKY

CITY           SKY/WX    TMP DP  RH WIND       PRES   REMARKS
JACKSON        PTCLDY    60  57  89 CALM      30.13R
LONDON         PTCLDY    59  55  87 CALM      30.13S
SOMERSET       FOG       57  57 100 CALM      30.13S VSB 1
MIDDLESBORO    FOG       57  57 100 CALM      30.15R VSB 1
MONTICELLO     MOSUNNY   55  55 100 CALM      30.13S FOG
$$



USA.gov is the U.S. government's official web portal to all federal, state and local government web resources and services.